Weather in Velichayevskoye

Russia / Stavropol Krai     44°56′46″N   45°08′11″E
temp.,
°C
wind,
m/s
gust,
m/s
humid.,
%
clouds,
%
prec.,
mm/h
press.,
hPa
HPBL,
m
17 may, tue
tue1700:00+14wnw5117049 0.0 1016283
03:00+12w48765 0.0 1016163
06:00+14w477071 0.0 1016243
09:00+20w57395 0.0 10162003
12:00+21wnw7934100 0.0 10152441
15:00+21w894130 0.0 10142051
18:00+20w61048100 0.0 10131806
21:00+16w5107053 0.1 1015364
18 may, wed
wed1800:00+13wsw59816 0.0 1015215
03:00+12w478566 0.0 1015126
06:00+13sw34775 0.0 1015157
09:00+19sw444981 0.0 10141048
12:00+23ssw343998 0.0 10121990
15:00+25sse343229 0.0 10102245
18:00+22ese89466 0.0 1010882
21:00+18se7115682 0.0 1011442
19 may, thu
thu1900:00+15se496898 0.0 1011285
03:00+13se12805 0.0 101116
06:00+15nw3372100 0.0 1013213
09:00+19nw795776 0.0 10141086
12:00+18nw10948100 0.0 10161339
15:00+15nw91153100 0.0 1017898
18:00+14w61367100 0.0 10171208
21:00+13wsw81271100 0.1 10181017
20 may, fri
fri2000:00+11w91566100 0.0 10191265
03:00+12wnw10146899 0.1 10191290
06:00+12wnw81472100 0.0 1021689
09:00+16wnw9125387 0.0 10211453
12:00+18wnw101144100 0.2 10212254
15:00+17w8124999 0.4 10201818
18:00+17wnw71054100 0.3 10211606
21:00+14w696884 0.4 1022352
21 may, sat
sat2100:00+12w5108359 0.0 1022220
03:00+13w4876100 0.0 1022266
06:00+13wsw4875100 0.0 1022305
09:00+19w575024 0.0 10201200
12:00+22w563830 0.0 10182056
15:00+22wsw5739100 0.0 10161924
18:00+22wnw464187 0.0 10151500
21:00+17w33566 0.0 101424